Location: ??????????
(42.1626°N, 44.1160°E)
Time: 11:08:08
(UTC+00:00)

Cosmos 1727 Rocket - Pass Details

Date: 03 March 2021
Orbit: 962 x 996 km, 82.9° (Epoch: 20 April)

Event Time Altitude Azimuth Distance (km) Brightness Sun altitude
Rises 16:58:50 0° 355° (N) 3,657 7.2 -23.4°
Reaches altitude 10° 17:01:23 10° 359° (N) 2,708 6.5 -23.9°
Maximum altitude 17:07:30 62° 80° (E) 1,084 3.9 -25.0°
Enters shadow 17:08:07 59° 107° (ESE) 1,112 3.9 -25.1°
